Beaufort, SC

11:35 PM EST on February 26, 2017 (GMT -0500)
Beaufort Marine Corps Air Station

Weather History for KNBC - July, 2013

Change the Weather History Date:

Wednesday, July 24, 2013

  Actual Average Record
Temperature  
Mean Temperature 78 °F -  
Max Temperature 84 °F 90 °F 101 °F (1952)
Min Temperature 73 °F 73 °F 65 °F (1974)
Cooling Degree Days 12    
Growing Degree Days 28 (Base 50)    
Moisture  
Dew Point 71 °F    
Average Humidity 78    
Maximum Humidity 91    
Minimum Humidity 66    
Precipitation  
Precipitation 0.00 in - - ()
Sea Level Pressure  
Sea Level Pressure 29.83 in    
Wind  
Wind Speed 7 mph (West)    
Max Wind Speed 12 mph    
Max Gust Speed -    
Visibility 10 miles    
Events Thunderstorm    
Averages and records for this station are not official NWS values.
T = Trace of Precipitation, MM = Missing Value Source: NWS Daily Summary

Daily Weather History Graph

Daily Weather History Graph

Search for Another Location

Airport or City:

Trip Planner

Search our weather history database for the weather conditions in past years. The results will help you decide how hot, cold, wet, or windy it might be!

Date:

Astronomy

Jul. 24, 2013 Rise Set
Actual Time 6:32 AM EDT 8:26 PM EDT
Civil Twilight 6:04 AM EDT 8:53 PM EDT
Nautical Twilight 5:31 AM EDT 9:26 PM EDT
Astronomical Twilight 4:56 AM EDT 10:01 PM EDT
Moon 9:44 PM EDT (7/24) 8:39 AM EDT (7/24)
Length of Visible Light 14h 48m
Length of Day
13h 54m
Waning Gibbous, 95% of the Moon is Illuminated
Jul 24
Waning Gibbous
Jul 29
Last Quarter
Aug 6
New
Aug 14
First Quarter
Aug 20
Full

Hourly Weather History & Observations

Time (EDT) Temp. Heat Index Dew Point Humidity Pressure Visibility Wind Dir Wind Speed Gust Speed Precip Events Conditions
12:56 AM 77.0 °F - 71.1 °F 82% 29.85 in 10.0 mi West 6.9 mph - 0.00 in   Clear
1:56 AM 75.9 °F - 71.1 °F 85% 29.84 in 10.0 mi WSW 9.2 mph - N/A   Clear
2:56 AM 75.0 °F - 71.1 °F 87% 29.83 in 10.0 mi SW 5.8 mph - N/A   Clear
3:56 AM 73.9 °F - 70.0 °F 87% 29.83 in 10.0 mi WSW 6.9 mph - N/A   Clear
4:56 AM 73.9 °F - 71.1 °F 91% 29.82 in 10.0 mi WSW 5.8 mph - N/A   Clear
5:56 AM 73.9 °F - 71.1 °F 91% 29.81 in 10.0 mi Calm Calm - N/A   Clear
6:56 AM 73.9 °F - 71.1 °F 91% 29.83 in 10.0 mi West 9.2 mph - N/A   Mostly Cloudy
7:56 AM 75.0 °F - 71.1 °F 87% 29.84 in 10.0 mi West 5.8 mph - N/A   Mostly Cloudy
8:56 AM 77.0 °F - 72.0 °F 84% 29.84 in 10.0 mi West 8.1 mph - N/A   Mostly Cloudy
9:11 AM 77.0 °F - 71.1 °F 82% 29.84 in 10.0 mi West 10.4 mph - N/A   Mostly Cloudy
9:56 AM 78.1 °F - 72.0 °F 81% 29.84 in 10.0 mi West 8.1 mph - N/A   Mostly Cloudy
10:23 AM 79.0 °F - 72.0 °F 79% 29.84 in 10.0 mi WNW 6.9 mph - N/A   Mostly Cloudy
10:56 AM 81.0 °F 84.9 °F 71.1 °F 72% 29.84 in 10.0 mi WNW 9.2 mph - N/A   Mostly Cloudy
11:56 AM 82.0 °F 86.3 °F 71.1 °F 69% 29.84 in 10.0 mi West 8.1 mph - N/A   Mostly Cloudy
12:04 PM 82.0 °F 86.3 °F 71.1 °F 69% 29.83 in 10.0 mi West 5.8 mph - N/A   Scattered Clouds
12:16 PM 81.0 °F 84.4 °F 70.0 °F 69% 29.83 in 10.0 mi Variable 6.9 mph - N/A   Mostly Cloudy
12:56 PM 82.9 °F 87.5 °F 71.1 °F 67% 29.83 in 10.0 mi NW 6.9 mph - N/A   Mostly Cloudy
1:56 PM 82.9 °F 87.5 °F 71.1 °F 67% 29.83 in 10.0 mi WNW 11.5 mph - N/A   Mostly Cloudy
2:53 PM 82.4 °F 86.3 °F 69.8 °F 66% 29.82 in 10.0 mi WNW 9.2 mph - N/A   Overcast
2:56 PM 82.0 °F 85.9 °F 70.0 °F 67% 29.83 in 10.0 mi WNW 9.2 mph - N/A   Overcast
3:34 PM 81.0 °F 85.2 °F 72.0 °F 74% 29.82 in 10.0 mi WNW 9.2 mph - N/A   Overcast
3:56 PM 81.0 °F 85.2 °F 72.0 °F 74% 29.82 in 9.0 mi WNW 9.2 mph - N/A   Overcast
4:56 PM 80.1 °F 83.6 °F 71.1 °F 74% 29.80 in 8.0 mi NW 5.8 mph - N/A   Overcast
5:56 PM 80.1 °F 83.6 °F 71.1 °F 74% 29.80 in 9.0 mi WNW 4.6 mph - N/A   Overcast
6:56 PM 81.0 °F 84.9 °F 71.1 °F 72% 29.80 in 10.0 mi West 5.8 mph - N/A   Mostly Cloudy
7:56 PM 80.1 °F 83.8 °F 72.0 °F 76% 29.81 in 9.0 mi SW 4.6 mph - N/A   Mostly Cloudy
8:56 PM 78.1 °F - 73.0 °F 84% 29.83 in 8.0 mi SSW 3.5 mph - N/A Thunderstorm Thunderstorm
9:56 PM 79.0 °F - 73.0 °F 82% 29.82 in 10.0 mi Calm Calm - N/A   Mostly Cloudy
10:56 PM 80.1 °F 84.2 °F 73.0 °F 79% 29.82 in 9.0 mi Calm Calm - N/A   Scattered Clouds
11:56 PM 78.1 °F - 73.9 °F 87% 29.81 in 8.0 mi West 8.1 mph - N/A   Partly Cloudy